This demonstration page uses our WeatherBlox Daily Observations layout. Learn more.

Left ArrowRight Arrow

Hourly Observations for May 13, 2020

Temp ( °F °C ) Dew Point ( °F °C ) Humidity (%) Winds ( mph kmh ) Pressure ( in mb ) Visibility ( mi km ) Precip ( " mm )
12:51 am 00:51 Clear 71 21.7 33 0.6 25 25 NW 8 13 29.74 1007 10 16.0934 0 0
1:51 am 01:51 undefined 67 19.4 34 1.1 30 30 N 5 7 29.74 1007 10 16.0934 0 0
2:51 am 02:51 Clear 68 20 36 2.2 31 31 NNW 10 17 29.73 1007 10 16.0934 0 0
3:51 am 03:51 Clear 68 20 37 2.8 32 32 NW 10 17 29.73 1007 10 16.0934 0 0
4:51 am 04:51 Clear 66 18.9 36 2.2 33 33 NW 9 15 29.75 1007 10 16.0934 0 0
5:51 am 05:51 Sunny 65 18.3 37 2.8 36 36 W 9 15 29.77 1008 10 16.0934 0 0
6:51 am 06:51 Sunny 66 18.9 37 2.8 34 34 SSE 5 7 29.79 1009 10 16.0934 0 0
7:51 am 07:51 Sunny 71 21.7 38 3.3 30 30 SSE 5 7 29.8 1009 10 16.0934 0 0
8:51 am 08:51 Sunny 76 24.4 32 0 20 20 WNW 5 7 29.8 1009 10 16.0934 0 0
9:51 am 09:51 Sunny 78 25.6 33 0.6 19 19 ESE 3 6 29.8 1009 10 16.0934 0 0
10:51 am 10:51 Sunny 81 27.2 33 0.6 18 18 Calm 29.78 1009 10 16.0934 0 0
11:51 am 11:51 Sunny 83 28.3 30 -1.1 15 15 NW 5 7 29.77 1008 10 16.0934 0 0
12:51 pm 12:51 Sunny 85 29.4 29 -1.7 13 13 S 8 13 29.74 1007 10 16.0934 0 0
1:51 pm 13:51 Sunny 86 30 29 -1.7 13 13 undefined N/A 29.72 1007 10 16.0934 0 0
2:51 pm 14:51 Sunny 88 31.1 30 -1.1 12 12 WSW 7 11 29.69 1006 10 16.0934 0 0
3:51 pm 15:51 Sunny 90 32.2 26 -3.3 10 10 WNW 14 22 29.67 1005 10 16.0934 0 0
4:51 pm 16:51 Sunny 90 32.2 24 -4.4 9 9 NW 16 26 29.66 1005 10 16.0934 0 0
5:51 pm 17:51 Sunny 87 30.6 25 -3.9 10 10 WNW 21 33 29.67 1005 10 16.0934 0 0
6:51 pm 18:51 Sunny 83 28.3 28 -2.2 13 13 NW 18 30 29.69 1006 10 16.0934 0 0
7:51 pm 19:51 Clear 80 26.7 29 -1.7 15 15 NNW 14 22 29.71 1006 10 16.0934 0 0
8:51 pm 20:51 Clear 77 25 30 -1.1 18 18 NW 10 17 29.73 1007 10 16.0934 0 0
9:51 pm 21:51 Clear 73 22.8 31 -0.6 21 21 WNW 12 19 29.76 1008 10 16.0934 0 0
10:51 pm 22:51 Clear 72 22.2 31 -0.6 22 22 NW 14 22 29.77 1008 10 16.0934 0 0
11:51 pm 23:51 Clear 72 22.2 31 -0.6 22 22 NW 15 24 29.76 1008 10 16.0934 0 0

Powered by AerisWeather